TimeCST,TemperatureF,Dew PointF,Humidity,Sea Level PressureIn,VisibilityMPH,Wind Direction,Wind SpeedMPH,Gust SpeedMPH,PrecipitationIn,Events,Conditions,WindDirDegrees,DateUTC
12:52 AM,28.0,23.0,81,30.35,10.0,SSE,11.5,-,N/A,,Overcast,150,2013-02-09 06:52:00
1:52 AM,28.0,24.1,85,30.35,10.0,SSE,6.9,-,N/A,,Overcast,160,2013-02-09 07:52:00
2:52 AM,28.0,23.0,81,30.35,10.0,SSE,9.2,-,N/A,,Overcast,160,2013-02-09 08:52:00
3:52 AM,27.0,23.0,85,30.34,10.0,SSE,10.4,-,N/A,,Overcast,150,2013-02-09 09:52:00
4:52 AM,28.0,23.0,81,30.34,10.0,South,9.2,-,N/A,,Overcast,170,2013-02-09 10:52:00
5:52 AM,27.0,24.1,89,30.34,10.0,SSE,11.5,-,N/A,,Overcast,160,2013-02-09 11:52:00
6:52 AM,27.0,23.0,85,30.33,10.0,SSE,12.7,-,N/A,,Overcast,160,2013-02-09 12:52:00
7:52 AM,28.0,23.0,81,30.33,10.0,SE,10.4,-,N/A,,Overcast,140,2013-02-09 13:52:00
8:52 AM,28.0,23.0,81,30.30,10.0,SSE,13.8,24.2,N/A,,Overcast,160,2013-02-09 14:52:00
9:52 AM,28.0,24.1,85,30.28,10.0,SSE,17.3,23.0,N/A,,Overcast,150,2013-02-09 15:52:00
10:52 AM,28.9,25.0,85,30.27,10.0,SSE,12.7,19.6,N/A,,Overcast,150,2013-02-09 16:52:00
11:52 AM,30.0,25.0,82,30.26,10.0,South,11.5,-,N/A,,Overcast,170,2013-02-09 17:52:00
12:52 PM,30.9,26.1,82,30.22,10.0,SSE,12.7,-,N/A,,Overcast,150,2013-02-09 18:52:00
1:52 PM,33.1,27.0,78,30.18,10.0,SE,12.7,-,N/A,,Overcast,140,2013-02-09 19:52:00
1:59 PM,33.8,26.6,75,30.15,10.0,SSE,16.1,19.6,N/A,,Overcast,150,2013-02-09 19:59:00
2:52 PM,33.1,27.0,78,30.15,10.0,SE,13.8,19.6,N/A,,Overcast,140,2013-02-09 20:52:00
3:52 PM,33.1,26.1,75,30.13,10.0,SSE,10.4,-,N/A,,Mostly Cloudy,150,2013-02-09 21:52:00
4:41 PM,33.8,26.6,75,30.07,10.0,SSE,11.5,-,N/A,,Scattered Clouds,150,2013-02-09 22:41:00
4:52 PM,32.0,27.0,82,30.09,10.0,SE,8.1,-,N/A,,Clear,140,2013-02-09 22:52:00
5:52 PM,32.0,27.0,82,30.07,10.0,ESE,6.9,-,N/A,,Clear,110,2013-02-09 23:52:00
6:52 PM,32.0,28.0,85,30.07,10.0,ESE,10.4,-,N/A,,Clear,120,2013-02-10 00:52:00
7:52 PM,30.9,28.0,89,30.07,10.0,SE,9.2,-,N/A,,Clear,140,2013-02-10 01:52:00
8:52 PM,30.9,27.0,85,30.05,10.0,SE,6.9,-,N/A,,Clear,130,2013-02-10 02:52:00
9:52 PM,30.0,27.0,88,30.02,9.0,ESE,8.1,-,N/A,,Partly Cloudy,110,2013-02-10 03:52:00
10:52 PM,30.9,28.0,89,30.01,8.0,ESE,6.9,-,N/A,,Mostly Cloudy,110,2013-02-10 04:52:00
11:52 PM,32.0,28.9,88,30.01,8.0,ESE,9.2,-,N/A,,Overcast,120,2013-02-10 05:52:00